Flag for U.S.A. Weather past 2 weeks in Hampton, Virginia, U.S.A.

Now
89 °F

Sunny.


Feels Like: 98 °F
Forecast: 77 / 89 °F
Wind: 13 mph from South

Location: Langley Air Force Base

Current Time: Aug 4, 2015 at 6:32:27 PM

Latest Report: Aug 4, 2015 at 5:58 PM


Visibility: 9 mi

Pressure: 29.91 "Hg

Humidity: 60%

Dew point: 73 °F

Location of HamptonLocation

Historic Weather in Hampton — Graph

°F

Hampton temperature yesterday

Maximum temperature yesterday: 90 °F (at 2:58 PM)
Minimum temperature yesterday: 71 °F (at 2:58 AM)
Average temperature yesterday: 80 °F

Past Weeks' High & Low Weather Summary

 TemperatureHumidityPressure
High93 °F (Jul 20, 4:58 PM)100% (Aug 3, 4:03 AM)30.08 "Hg (Aug 3, 4:03 AM)
Low67 °F (Jul 25, 3:58 AM)39% (Jul 25, 11:58 AM)29.65 "Hg (Jul 21, 3:58 PM)
Average80 °F73%29.94 "Hg
* Reported Jul 20 4:58 PM — Aug 4 4:58 PM, Hampton, Weather by CustomWeather, © 2015

Note: Actual official high and low records may vary slightly from our data, if they occured in-between our weather recording intervals... More about our weather records

Advertising

Hampton weather history for previous 24 hours

 ConditionsComfort  
Time TempWeatherWind HumidityBarometerVisibility
4:58 PM
Tue, Aug 4
90 °FSunny.15 mph54%29.93 "Hg10 mi
3:58 PM90 °FSunny.17 mph57%29.94 "Hg9 mi
2:58 PM91 °FPassing clouds.17 mph55%29.94 "Hg9 mi
1:59 PM90 °FScattered clouds.14 mph63%29.94 "Hg9 mi
12:58 PM89 °FPassing clouds.13 mph63%29.96 "Hg8 mi
11:58 AM87 °FSunny.17 mph68%29.99 "Hg8 mi
10:58 AM85 °FSunny.17 mph73%29.99 "Hg8 mi
9:58 AM83 °FSunny.20 mph78%29.99 "Hg8 mi
8:58 AM81 °FSunny.16 mph82%29.99 "Hg8 mi
7:58 AM79 °FSunny.13 mph84%29.99 "Hg9 mi
6:58 AM76 °FClear.13 mph90%30.00 "Hg9 mi
5:58 AM76 °FClear.9 mph91%29.99 "Hg10 mi
4:58 AM76 °FClear.12 mph88%29.96 "Hg10 mi
3:58 AM76 °FClear.14 mph88%29.94 "Hg10 mi
2:58 AM77 °FClear.14 mph87%29.93 "Hg10 mi
1:58 AM78 °FClear.13 mph85%29.94 "Hg10 mi
12:58 AM79 °FClear.14 mph86%29.93 "Hg10 mi
11:58 PM
Mon, Aug 3
80 °FClear.12 mph86%29.93 "Hg10 mi
10:58 PM80 °FClear.10 mph85%29.92 "Hg10 mi
9:58 PM80 °FClear.10 mph84%29.92 "Hg10 mi
8:58 PM76 °FSunny.12 mph95%29.90 "Hg10 mi
7:58 PM78 °FThunderstorms. Broken clouds.8 mph78%29.89 "Hg10 mi
6:58 PM88 °FPassing clouds.12 mph59%29.87 "Hg10 mi
Weather by CustomWeather, © 2015

See weather overviewHow to use our weather pages